Wind_Speed
7 6 6 6 6 6 5 5 5 5 5 5 5 5 4 4 4 3 3 2 2 2 1 0 1 2 2 1 1 2 4 5 4 4 4 5 5 5 5 5 5 5 5
6 6 6 5 5 5 5 5 5 5 4 4 5 4 4 3 3 3 3 2 2 2 1 1 1 2 2 2 3 3 4 5 5 5 5 5 6 6 5 6 5 5 4
5 5 5 5 4 4 4 4 4 4 4 4 4 4 4 3 3 3 2 2 1 1 1 1 1 2 2 3 3 4 4 5 6 6 6 6 6 7 6 6 6 5 6
4 4 4 4 4 4 4 3 4 4 4 4 4 4 3 3 3 2 2 2 1 1 1 1 1 2 2 3 3 3 3 4 4 5 6 6 6 6 6 7 7 7 7
4 4 3 4 4 4 4 3 3 4 4 3 3 3 3 3 3 2 2 2 1 2 2 2 2 2 3 3 3 4 4 4 4 5 6 5 6 7 7 8 8 8 7
4 3 3 3 4 4 3 3 4 4 4 3 3 3 3 3 3 2 1 1 2 2 2 2 3 3 4 4 4 4 4 4 5 5 5 5 6 7 7 8 8 8 7
4 4 3 3 3 3 4 4 4 4 4 3 3 3 3 3 3 2 2 2 2 3 3 3 3 4 3 4 4 4 4 4 5 5 5 5 6 6 6 6 7 8 7
4 4 4 4 4 4 4 4 4 4 4 4 4 4 4 3 3 3 3 3 3 4 4 4 4 4 4 4 4 3 4 4 5 5 5 6 7 7 5 6 7 7 7
4 4 4 4 4 4 5 5 5 4 5 4 4 4 4 4 3 4 4 4 4 4 4 5 5 5 4 4 4 4 4 4 5 6 6 7 7 7 6 6 6 6 7
4 4 3 4 4 4 5 5 5 5 6 5 6 5 4 4 4 4 5 4 4 4 4 5 5 5 4 4 4 4 4 5 6 6 6 6 7 6 7 6 6 7 7
3 4 4 4 5 5 5 6 6 6 6 6 7 6 5 5 5 5 6 5 5 5 5 5 6 5 5 5 4 5 5 5 5 6 6 6 6 6 7 7 7 8 8
4 4 4 5 5 6 6 7 7 7 7 8 8 7 6 6 6 6 6 6 6 6 6 6 6 6 5 5 5 4 5 6 6 7 7 7 7 7 7 8 8 8 8
5 5 6 6 6 6 7 7 7 7 8 8 8 7 7 7 7 7 7 7 7 7 6 6 6 6 6 6 6 5 6 6 7 7 7 7 7 7 8 8 9 9 9
5 6 7 7 7 7 8 8 8 8 8 9 9 9 9 8 8 7 7 8 8 7 7 7 7 7 6 6 6 6 7 7 7 7 7 8 8 8 9 9 9 9 10
6 7 8 8 8 8 9 9 9 9 9 9 9 9 10 10 10 10 9 9 9 8 8 8 8 8 8 8 7 7 7 8 8 7 8 8 8 8 9 10 9 9 10
7 8 8 9 9 9 10 10 10 10 10 10 10 10 11 11 11 11 10 10 10 9 9 9 9 9 9 9 9 9 9 9 8 8 9 10 10 11 11 11 11 11 11
8 8 9 9 10 11 11 10 10 10 10 10 11 11 11 11 11 11 11 12 11 11 10 10 10 10 10 10 10 10 11 11 10 10 10 11 12 12 12 12 12 12 12
9 9 9 9 10 11 11 11 11 11 11 11 12 11 11 11 12 11 11 12 11 11 11 11 11 12 12 12 12 12 12 13 13 12 12 13 13 14 14 13 13 13 14
10 10 9 10 11 12 12 12 12 12 12 13 13 13 12 12 12 12 12 12 11 11 11 11 12 13 13 13 13 14 14 14 15 14 14 13 14 15 15 15 15 15 15
10 11 11 11 12 12 13 13 13 13 13 14 14 13 14 13 13 13 13 12 12 12 11 12 13 13 14 14 15 15 15 15 15 15 15 15 15 15 16 16 16 16 16
11 12 12 12 13 14 14 14 14 14 14 14 15 15 15 15 14 13 13 12 12 13 12 12 13 13 14 15 15 16 16 16 17 17 16 16 15 16 16 17 17 17 17
12 13 13 13 14 15 15 15 15 15 15 16 17 15 15 15 15 14 13 13 13 13 13 13 14 14 14 15 16 16 16 17 17 17 17 17 17 17 17 18 18 18 18
13 13 14 14 15 15 15 15 15 16 17 17 17 16 16 16 16 14 14 14 14 14 14 14 15 15 16 16 16 16 16 17 17 17 18 18 19 18 19 19 19 19 20
15 15 15 15 15 16 16 16 16 16 17 17 16 15 15 16 16 15 15 14 14 15 15 15 15 16 17 17 17 16 17 17 18 18 18 19 20 19 19 19 20 20 21
16 16 16 16 16 16 16 16 16 16 17 17 15 14 14 15 16 16 15 15 15 15 15 15 16 17 17 17 17 17 17 17 18 18 18 19 20 20 21 21 21 21 22
18 18 16 16 16 16 17 17 17 16 16 16 16 15 15 15 16 15 15 15 15 15 16 17 18 17 16 16 17 17 18 18 19 19 20 20 20 21 21 21 23 23 23
Wind_Direction
48 48 49 51 51 51 50 50 55 56 53 54 53 53 51 51 51 57 57 57 55 45 36 324 287 303 277 251 244 225 201 201 195 197 199 202 206 210 217 216 201 202 211
43 45 43 42 47 46 42 44 51 53 49 46 44 46 44 38 37 40 49 53 46 37 20 333 292 300 290 269 264 238 222 213 218 214 214 215 218 221 222 225 212 200 213
31 32 31 29 39 40 33 34 43 43 40 36 33 35 33 26 27 30 32 36 28 24 359 346 299 300 295 289 258 231 221 215 217 221 216 218 222 226 230 231 222 218 220
17 17 20 23 27 29 30 30 33 29 24 22 22 23 21 16 13 20 12 6 345 330 331 329 314 306 299 279 261 239 234 232 220 222 221 225 226 225 223 227 223 220 219
12 10 11 13 17 26 27 22 16 14 11 9 10 11 11 12 6 4 359 354 321 298 299 301 303 296 288 279 278 273 258 241 231 230 234 232 230 228 224 227 226 218 218
9 9 7 9 12 18 20 13 10 7 2 360 358 356 354 357 357 350 340 338 308 285 284 289 293 288 282 277 270 267 257 247 230 233 237 232 226 221 221 225 221 213 211
12 11 8 7 6 6 4 3 5 3 360 355 347 341 344 343 342 331 322 312 298 285 282 284 288 288 287 276 271 267 253 249 232 228 229 223 221 219 217 226 223 215 214
13 11 5 359 353 351 351 354 353 352 354 350 341 332 332 331 324 320 314 306 295 291 281 280 281 283 284 278 280 265 258 243 228 219 218 213 219 218 222 224 220 217 213
12 10 5 2 355 348 350 350 345 341 338 338 338 329 326 326 324 320 316 307 303 294 290 286 283 281 277 276 277 263 256 237 229 219 220 211 213 218 226 223 223 223 218
3 360 358 358 354 350 353 353 349 344 341 338 336 330 323 321 317 316 316 308 303 295 291 280 277 276 277 274 268 257 253 243 227 226 222 217 218 223 228 233 228 217 215
345 351 353 351 348 346 346 343 340 337 336 336 335 332 323 320 317 311 312 309 301 293 285 279 271 270 273 272 260 251 246 244 238 237 232 222 221 228 232 235 231 228 224
325 327 334 336 339 340 338 335 332 328 330 333 332 331 324 323 319 313 310 304 298 294 286 281 276 270 270 272 268 261 245 241 240 243 241 229 226 228 230 231 230 231 232
314 314 321 323 325 326 326 328 324 319 323 328 329 326 325 323 319 311 305 299 292 288 283 279 277 276 277 272 266 264 256 244 236 241 237 235 235 233 230 234 232 230 233
313 314 315 314 315 317 317 320 320 318 321 327 323 319 320 316 313 310 300 295 293 285 278 276 275 276 279 273 264 261 258 246 242 243 238 238 239 239 235 235 237 236 240
307 308 309 310 311 313 312 311 314 316 318 323 321 316 316 312 308 306 303 298 290 283 275 276 277 275 274 274 268 264 263 259 257 255 255 250 246 244 246 248 244 242 242
303 307 307 307 306 309 307 306 307 310 313 315 315 311 309 309 307 304 299 295 290 280 275 277 278 274 270 270 268 263 261 266 259 257 257 254 254 254 252 253 248 246 246
299 303 307 308 308 306 304 299 301 306 309 310 309 306 304 301 301 300 296 294 290 284 279 274 273 272 269 267 265 264 262 261 261 260 260 257 257 257 252 250 251 247 245
299 300 306 313 316 313 310 302 300 302 302 305 306 301 299 298 299 300 297 296 291 287 280 274 272 272 270 266 267 267 265 262 262 263 264 262 259 256 255 254 253 253 248
296 299 301 309 313 313 310 306 303 301 301 302 306 303 300 296 297 297 296 295 292 289 283 278 275 272 269 268 269 269 267 265 264 264 263 262 262 259 257 257 253 252 250
290 294 296 302 309 312 311 308 304 301 301 302 305 303 299 294 297 295 294 292 287 284 282 280 276 273 270 270 269 270 268 266 265 263 261 260 262 260 259 257 251 251 251
288 291 293 298 306 311 311 307 303 299 299 298 301 299 296 292 295 297 293 290 287 283 281 279 277 276 272 270 270 270 268 265 263 262 259 259 258 259 258 255 251 252 253
286 289 289 294 302 307 308 307 303 299 297 299 298 291 290 291 291 294 292 290 286 284 282 279 278 277 275 274 271 271 269 265 263 262 259 258 259 259 258 255 253 253 253
285 287 288 291 296 301 306 305 305 302 298 297 293 287 286 290 288 291 291 289 284 284 284 282 280 279 278 275 273 272 270 267 265 262 261 259 260 259 257 256 253 254 254
281 282 283 285 291 296 300 300 301 300 302 300 293 291 292 295 290 291 289 289 289 285 285 283 282 282 280 276 273 272 269 267 265 263 262 261 260 260 259 259 257 256 255
277 280 282 282 287 292 295 298 300 301 302 303 299 295 296 299 297 294 292 290 290 289 287 285 284 282 280 275 271 271 271 268 265 264 263 261 260 259 258 258 258 258 258
273 277 280 282 283 287 291 296 297 297 299 300 296 293 294 298 299 299 296 293 290 290 290 289 285 282 279 274 272 271 270 269 266 265 263 262 262 260 258 257 257 258 259
Height
5897 5896 5895 5894 5894 5893 5892 5892 5891 5890 5889 5888 5887 5886 5886 5885 5884 5884 5883 5883 5883 5882 5882 5881 5881 5880 5880 5879 5879 5879 5880 5880 5880 5880 5881 5881 5881 5882 5882 5882 5882 5883 5883
5897 5896 5895 5895 5894 5893 5892 5892 5891 5890 5889 5888 5887 5887 5886 5885 5884 5884 5883 5883 5882 5882 5881 5881 5880 5880 5879 5879 5879 5879 5879 5880 5880 5880 5880 5881 5881 5881 5881 5882 5882 5883 5883
5897 5896 5895 5895 5894 5893 5892 5891 5890 5890 5889 5888 5887 5886 5886 5885 5884 5884 5883 5883 5882 5881 5881 5880 5880 5879 5879 5878 5878 5878 5878 5879 5879 5879 5880 5880 5880 5880 5881 5881 5881 5882 5883
5897 5896 5895 5895 5894 5893 5892 5891 5890 5889 5888 5887 5887 5886 5885 5884 5884 5883 5883 5882 5882 5881 5880 5880 5879 5879 5878 5877 5877 5877 5877 5878 5878 5878 5878 5879 5879 5880 5880 5881 5881 5881 5882
5897 5896 5895 5894 5894 5893 5892 5891 5890 5889 5888 5887 5886 5885 5885 5884 5883 5883 5882 5882 5881 5880 5880 5879 5879 5878 5878 5877 5877 5877 5876 5876 5877 5877 5877 5878 5878 5879 5879 5880 5880 5881 5881
5896 5895 5895 5894 5893 5893 5892 5891 5890 5889 5888 5887 5886 5885 5884 5883 5883 5882 5881 5881 5880 5880 5879 5878 5878 5877 5877 5876 5876 5876 5875 5875 5875 5876 5876 5877 5877 5878 5878 5878 5879 5880 5881
5896 5895 5895 5894 5893 5892 5892 5891 5890 5888 5887 5886 5885 5884 5883 5883 5882 5881 5881 5880 5879 5879 5878 5878 5877 5876 5876 5876 5875 5874 5874 5874 5874 5875 5875 5876 5877 5877 5878 5878 5878 5879 5880
5896 5895 5894 5893 5893 5892 5891 5890 5889 5888 5887 5886 5884 5884 5883 5882 5881 5880 5880 5879 5879 5878 5877 5877 5876 5875 5875 5874 5874 5873 5873 5873 5873 5874 5874 5875 5875 5876 5877 5877 5878 5879 5880
5896 5895 5894 5893 5892 5891 5890 5890 5889 5887 5886 5885 5884 5883 5882 5881 5880 5879 5878 5878 5877 5877 5876 5876 5875 5874 5874 5873 5873 5872 5872 5872 5872 5872 5873 5874 5874 5876 5876 5877 5877 5878 5879
5895 5894 5893 5892 5891 5891 5890 5889 5888 5887 5886 5884 5883 5882 5881 5880 5879 5878 5877 5877 5876 5876 5875 5875 5874 5873 5873 5872 5872 5872 5871 5871 5871 5872 5872 5873 5874 5874 5875 5876 5877 5877 5878
5895 5894 5893 5892 5891 5890 5889 5888 5887 5886 5885 5883 5882 5881 5880 5879 5877 5876 5876 5875 5875 5874 5874 5873 5873 5872 5872 5871 5871 5871 5870 5870 5870 5871 5871 5872 5873 5873 5874 5875 5875 5876 5877
5894 5893 5892 5891 5890 5889 5888 5887 5886 5885 5883 5882 5881 5880 5878 5877 5876 5875 5874 5873 5873 5872 5872 5872 5871 5871 5871 5870 5870 5869 5869 5869 5869 5870 5870 5871 5872 5872 5873 5873 5874 5875 5875
5893 5893 5891 5890 5889 5888 5887 5886 5884 5883 5882 5881 5880 5878 5877 5876 5875 5874 5872 5871 5871 5871 5870 5870 5870 5869 5869 5869 5869 5869 5869 5868 5869 5869 5869 5870 5870 5871 5871 5872 5872 5873 5873
5892 5891 5890 5889 5888 5887 5886 5885 5883 5882 5881 5879 5878 5877 5876 5875 5874 5873 5871 5870 5869 5869 5869 5868 5868 5868 5867 5867 5867 5867 5867 5867 5867 5867 5867 5868 5869 5869 5869 5870 5870 5870 5871
5891 5890 5889 5888 5887 5885 5884 5883 5882 5880 5879 5878 5877 5876 5875 5874 5873 5871 5870 5869 5868 5867 5867 5866 5866 5866 5866 5866 5866 5866 5865 5865 5866 5866 5866 5866 5866 5867 5867 5867 5868 5868 5869
5890 5889 5888 5886 5885 5884 5882 5881 5880 5879 5878 5876 5875 5874 5873 5872 5870 5869 5868 5867 5866 5865 5865 5865 5864 5864 5864 5864 5864 5864 5864 5863 5864 5864 5864 5865 5865 5865 5865 5865 5865 5866 5867
5888 5887 5886 5884 5883 5881 5880 5879 5878 5877 5876 5875 5873 5872 5870 5869 5868 5867 5866 5864 5863 5862 5862 5862 5862 5862 5862 5862 5862 5862 5862 5862 5862 5862 5862 5862 5862 5862 5862 5863 5863 5864 5864
5886 5885 5884 5882 5881 5879 5878 5877 5876 5875 5874 5873 5871 5869 5868 5867 5865 5864 5863 5862 5860 5860 5860 5860 5860 5859 5859 5859 5859 5859 5859 5859 5859 5859 5859 5859 5859 5859 5859 5860 5860 5861 5861
5883 5883 5882 5880 5879 5878 5876 5875 5874 5873 5872 5870 5869 5867 5866 5865 5864 5862 5861 5859 5858 5857 5857 5857 5857 5856 5856 5856 5856 5856 5856 5856 5856 5856 5856 5856 5856 5856 5856 5856 5856 5857 5858
5881 5880 5879 5878 5877 5875 5874 5872 5872 5870 5869 5868 5866 5865 5864 5862 5861 5859 5858 5857 5856 5855 5854 5853 5853 5853 5853 5853 5853 5852 5852 5852 5852 5852 5852 5852 5852 5852 5852 5852 5853 5853 5854
5879 5878 5877 5876 5875 5873 5872 5870 5869 5867 5866 5865 5864 5862 5861 5859 5858 5856 5855 5854 5853 5852 5851 5850 5849 5849 5849 5849 5848 5848 5848 5848 5848 5848 5848 5848 5848 5847 5848 5848 5848 5849 5850
5876 5875 5874 5873 5872 5871 5870 5868 5866 5864 5863 5862 5861 5859 5858 5856 5855 5853 5852 5851 5849 5848 5847 5846 5846 5845 5845 5844 5844 5844 5843 5844 5843 5843 5843 5843 5843 5843 5844 5844 5844 5845 5846
5873 5873 5872 5871 5870 5869 5867 5865 5864 5862 5860 5859 5857 5855 5854 5853 5851 5850 5849 5847 5846 5845 5844 5843 5842 5841 5841 5840 5839 5839 5839 5839 5838 5838 5838 5839 5839 5839 5840 5840 5840 5841 5841
5870 5869 5868 5867 5867 5866 5864 5863 5861 5859 5857 5855 5853 5851 5850 5849 5847 5846 5845 5843 5842 5841 5840 5839 5838 5837 5836 5835 5834 5834 5834 5834 5834 5834 5834 5834 5834 5835 5835 5835 5836 5836 5837
5866 5866 5865 5864 5863 5862 5861 5860 5858 5856 5854 5852 5850 5848 5847 5845 5844 5842 5841 5839 5838 5837 5836 5835 5833 5832 5831 5830 5829 5829 5829 5829 5829 5829 5829 5829 5830 5830 5830 5830 5831 5831 5831
5862 5862 5861 5861 5860 5859 5858 5856 5855 5853 5851 5849 5846 5845 5843 5842 5840 5838 5837 5835 5834 5833 5831 5830 5829 5827 5826 5825 5824 5824 5824 5824 5824 5824 5824 5824 5824 5824 5825 5825 5825 5825 5825